Weather History for KGCD - December, 2012

Change the Weather History Date:

Tuesday, December 11, 2012

  Actual Average (KBNO) Record (KBNO)
Temperature  
Mean Temperature 37 °F 24 °F  
Max Temperature 42 °F 34 °F 57 °F (1958)
Min Temperature 32 °F 14 °F -19 °F (1972)
Degree Days  
Heating Degree Days 28 41  
Month to date heating degree days 435  
Since 1 July heating degree days 2436  
Cooling Degree Days 0 0  
Month to date cooling degree days 0  
Year to date cooling degree days 215  
Moisture  
Dew Point 31 °F    
Average Humidity 80    
Maximum Humidity 93    
Minimum Humidity 61    
Precipitation  
Precipitation 0.01 in 0.05 in 0.76 in (1956)
Month to date precipitation 0.54  
Year to date precipitation 9.91  
Sea Level Pressure  
Sea Level Pressure 29.76 in    
Wind  
Wind Speed 8 mph (ESE)    
Max Wind Speed 13 mph    
Max Gust Speed 20 mph    
Visibility 10 miles    
Events Snow    
T = Trace of Precipitation, MM = Missing Value Source: NWS Daily Summary

Daily Weather History Graph

Daily Weather History Graph

Search for Another Location

Airport or City:

Trip Planner

Search our weather history database for the weather conditions in past years. The results will help you decide how hot, cold, wet, or windy it might be!

Date:

Astronomy

Dec. 11, 2012 Rise Set
Actual Time 7:22 AM PST 4:16 PM PST
Civil Twilight 6:49 AM PST 4:49 PM PST
Nautical Twilight 6:12 AM PST 5:26 PM PST
Astronomical Twilight 5:37 AM PST 6:01 PM PST
Moon 5:20 AM PST (12/11) 3:01 PM PST (12/11)
Length of Visible Light 10h 00m
Length of Day
8h 54m
Waning Crescent, 4% of the Moon is Illuminated
Dec 11
Waning Crescent
Dec 13
New
Dec 19
First Quarter
Dec 28
Full
Jan 4
Last Quarter

Hourly Weather History & Observations

Time (PST) Temp. Windchill Dew Point Humidity Pressure Visibility Wind Dir Wind Speed Gust Speed Precip Events Conditions
12:15 AM 33.8 °F 27.0 °F 30.2 °F 87% 30.11 in 10.0 mi ESE 8.1 mph - N/A   Clear
12:35 AM 33.8 °F 26.4 °F 30.2 °F 87% 30.10 in 10.0 mi East 9.2 mph - N/A   Clear
12:55 AM 33.8 °F 25.3 °F 30.2 °F 87% 30.09 in 10.0 mi SE 11.5 mph - N/A   Clear
1:15 AM 33.8 °F 24.8 °F 30.2 °F 87% 30.08 in 10.0 mi ESE 12.7 mph 17.3 mph N/A   Clear
1:35 AM 33.8 °F 25.3 °F 30.2 °F 87% 30.07 in 10.0 mi East 11.5 mph 19.6 mph N/A   Clear
1:55 AM 33.8 °F 26.4 °F 30.2 °F 87% 30.06 in 10.0 mi East 9.2 mph - N/A   Clear
2:15 AM 32.0 °F 25.6 °F 28.4 °F 87% 30.06 in 10.0 mi ESE 6.9 mph - N/A   Clear
2:35 AM 33.8 °F 25.8 °F 30.2 °F 87% 30.05 in 10.0 mi SE 10.4 mph - N/A   Clear
2:55 AM 33.8 °F 25.8 °F 30.2 °F 87% 30.05 in 10.0 mi ESE 10.4 mph - N/A   Clear
3:15 AM 33.8 °F 25.8 °F 30.2 °F 87% 30.02 in 10.0 mi ESE 10.4 mph - N/A   Clear
3:35 AM 33.8 °F 28.6 °F 30.2 °F 87% 30.01 in 10.0 mi ESE 5.8 mph 9.2 mph N/A   Clear
3:55 AM 32.0 °F 23.6 °F 28.4 °F 87% 29.99 in 10.0 mi ESE 10.4 mph - N/A   Clear
4:15 AM 32.0 °F 23.0 °F 30.2 °F 93% 29.97 in 10.0 mi SE 11.5 mph - N/A   Clear
4:35 AM 33.8 °F 25.8 °F 30.2 °F 87% 29.97 in 10.0 mi SE 10.4 mph - N/A   Clear
4:55 AM 32.0 °F 23.0 °F 30.2 °F 93% 29.95 in 10.0 mi ESE 11.5 mph - N/A   Clear
5:15 AM 33.8 °F 27.7 °F 30.2 °F 87% 29.94 in 10.0 mi East 6.9 mph - N/A   Clear
5:35 AM 32.0 °F 24.8 °F 28.4 °F 87% 29.93 in 10.0 mi ESE 8.1 mph - N/A   Clear
5:55 AM 33.8 °F 28.6 °F 30.2 °F 87% 29.91 in 10.0 mi ENE 5.8 mph - N/A   Clear
6:15 AM 32.0 °F 23.0 °F 28.4 °F 87% 29.90 in 10.0 mi ESE 11.5 mph 18.4 mph N/A   Clear
6:35 AM 32.0 °F 25.6 °F 28.4 °F 87% 29.90 in 10.0 mi East 6.9 mph - N/A   Clear
6:55 AM 32.0 °F 24.8 °F 28.4 °F 87% 29.90 in 10.0 mi East 8.1 mph - N/A   Clear
7:15 AM 33.8 °F 25.3 °F 28.4 °F 81% 29.87 in 10.0 mi ESE 11.5 mph 18.4 mph N/A   Clear
7:35 AM 33.8 °F 25.8 °F 28.4 °F 81% 29.85 in 10.0 mi East 10.4 mph - N/A   Clear
7:55 AM 33.8 °F 25.8 °F 28.4 °F 81% 29.85 in 10.0 mi ESE 10.4 mph - N/A   Clear
8:15 AM 33.8 °F 27.0 °F 30.2 °F 87% 29.84 in 10.0 mi East 8.1 mph - N/A   Clear
8:35 AM 33.8 °F 27.0 °F 30.2 °F 87% 29.83 in 10.0 mi East 8.1 mph - N/A   Clear
8:55 AM 33.8 °F 27.7 °F 30.2 °F 87% 29.83 in 10.0 mi East 6.9 mph - N/A   Clear
9:15 AM 33.8 °F 26.4 °F 30.2 °F 87% 29.83 in 10.0 mi East 9.2 mph - N/A   Clear
9:35 AM 33.8 °F 27.0 °F 30.2 °F 87% 29.81 in 10.0 mi East 8.1 mph - N/A   Clear
9:55 AM 37.4 °F 30.8 °F 30.2 °F 75% 29.80 in 10.0 mi East 9.2 mph - N/A   Clear
10:15 AM 37.4 °F - 30.2 °F 75% 29.78 in 10.0 mi Calm Calm - N/A   Clear
10:35 AM 39.2 °F 33.6 °F 30.2 °F 70% 29.78 in 10.0 mi East 8.1 mph - N/A   Clear
10:55 AM 39.2 °F 34.2 °F 30.2 °F 70% 29.76 in 10.0 mi East 6.9 mph - N/A   Clear
11:15 AM 37.4 °F 33.8 °F 32.0 °F 81% 29.74 in 10.0 mi ESE 4.6 mph - N/A   Clear
11:35 AM 39.2 °F 35.0 °F 32.0 °F 75% 29.72 in 10.0 mi ESE 5.8 mph - N/A   Scattered Clouds
11:55 AM 41.0 °F 38.0 °F 32.0 °F 70% 29.71 in 10.0 mi ENE 4.6 mph - N/A   Mostly Cloudy
12:15 PM 39.2 °F 34.2 °F 30.2 °F 70% 29.71 in 10.0 mi South 6.9 mph - N/A   Overcast
12:35 PM 41.0 °F 39.0 °F 30.2 °F 65% 29.69 in 10.0 mi SE 3.5 mph - N/A   Overcast
12:55 PM 41.0 °F 37.1 °F 30.2 °F 65% 29.68 in 10.0 mi ENE 5.8 mph - N/A   Overcast
1:15 PM 41.0 °F 35.8 °F 32.0 °F 70% 29.66 in 10.0 mi NE 8.1 mph - N/A   Overcast
1:35 PM 41.0 °F 35.8 °F 30.2 °F 65% 29.66 in 10.0 mi ENE 8.1 mph - N/A   Overcast
1:55 PM 39.2 °F 34.2 °F 32.0 °F 75% 29.64 in 10.0 mi East 6.9 mph - N/A   Mostly Cloudy
2:15 PM 41.0 °F 39.0 °F 32.0 °F 70% 29.64 in 10.0 mi NNE 3.5 mph - N/A   Mostly Cloudy
2:35 PM 41.0 °F 36.4 °F 32.0 °F 70% 29.63 in 10.0 mi East 6.9 mph - N/A   Overcast
2:55 PM 41.0 °F 36.4 °F 32.0 °F 70% 29.61 in 10.0 mi East 6.9 mph - N/A   Overcast
3:15 PM 41.0 °F 39.0 °F 32.0 °F 70% 29.61 in 10.0 mi East 3.5 mph - N/A   Overcast
3:35 PM 41.0 °F 39.0 °F 32.0 °F 70% 29.60 in 10.0 mi ESE 3.5 mph - N/A   Overcast
3:55 PM 42.8 °F 41.1 °F 30.2 °F 61% 29.58 in 10.0 mi East 3.5 mph - N/A   Overcast
4:15 PM 41.0 °F - 32.0 °F 70% 29.57 in 10.0 mi Calm Calm - N/A   Overcast
4:35 PM 41.0 °F 39.0 °F 30.2 °F 65% 29.56 in 10.0 mi East 3.5 mph - N/A   Mostly Cloudy
4:55 PM 39.2 °F 35.0 °F 32.0 °F 75% 29.56 in 10.0 mi East 5.8 mph - N/A   Scattered Clouds
5:15 PM 41.0 °F - 32.0 °F 70% 29.56 in 10.0 mi Calm Calm - N/A   Scattered Clouds
5:35 PM 41.0 °F - 30.2 °F 65% 29.56 in 10.0 mi Calm Calm - N/A   Overcast
5:55 PM 37.4 °F - 32.0 °F 81% 29.56 in 10.0 mi Calm Calm - N/A   Overcast
6:15 PM 37.4 °F - 32.0 °F 81% 29.56 in 10.0 mi Calm Calm - N/A   Overcast
6:35 PM 37.4 °F 33.8 °F 32.0 °F 81% 29.56 in 10.0 mi WNW 4.6 mph - N/A   Overcast
6:55 PM 39.2 °F 35.0 °F 30.2 °F 70% 29.56 in 10.0 mi West 5.8 mph - N/A   Overcast
7:15 PM 39.2 °F 32.5 °F 30.2 °F 70% 29.56 in 10.0 mi WNW 10.4 mph - N/A   Overcast
7:35 PM 37.4 °F 31.4 °F 32.0 °F 81% 29.57 in 10.0 mi West 8.1 mph - N/A   Overcast
7:55 PM 37.4 °F 32.1 °F 32.0 °F 81% 29.58 in 10.0 mi WSW 6.9 mph - N/A   Overcast
8:15 PM 37.4 °F 32.8 °F 30.2 °F 75% 29.57 in 10.0 mi West 5.8 mph - N/A   Overcast
8:35 PM 37.4 °F 30.8 °F 30.2 °F 75% 29.58 in 10.0 mi West 9.2 mph - N/A   Overcast
8:55 PM 37.4 °F 31.4 °F 30.2 °F 75% 29.59 in 10.0 mi West 8.1 mph - N/A   Overcast
9:15 PM 35.6 °F 29.2 °F 32.0 °F 87% 29.58 in 10.0 mi West 8.1 mph - N/A   Overcast
9:35 PM 35.6 °F 29.9 °F 32.0 °F 87% 29.59 in 10.0 mi West 6.9 mph - N/A   Overcast
9:55 PM 35.6 °F 31.7 °F 32.0 °F 87% 29.59 in 7.0 mi SW 4.6 mph - N/A   Overcast
10:15 PM 33.8 °F 30.8 °F 32.0 °F 93% 29.59 in 2.5 mi WSW 3.5 mph - 0.01 in Snow Light Snow
10:35 PM 33.8 °F - 32.0 °F 93% 29.59 in 7.0 mi Calm Calm - 0.01 in   Overcast
10:55 PM 33.8 °F 30.8 °F 32.0 °F 93% 29.59 in 10.0 mi WSW 3.5 mph - 0.01 in   Overcast
11:15 PM 33.8 °F 30.8 °F 32.0 °F 93% 29.59 in 7.0 mi WNW 3.5 mph - N/A Snow Light Snow
11:35 PM 33.8 °F - 32.0 °F 93% 29.60 in 2.0 mi Calm Calm - N/A Snow Light Snow
11:55 PM 33.8 °F - 32.0 °F 93% 29.59 in 1.8 mi Calm Calm - N/A Snow Light Snow